Dallas Addison, TX

7:50 AM CST on November 22, 2017 (GMT -0600)
Addison

Weather History for KADS - November, 2013

Change the Weather History Date:

Monday, November 11, 2013

  Actual Average Record
Temperature  
Mean Temperature 60 °F -  
Max Temperature 71 °F 64 °F 82 °F (1999)
Min Temperature 50 °F 49 °F 33 °F (1997)
Degree Days  
Heating Degree Days 4    
Growing Degree Days 10 (Base 50)    
Moisture  
Dew Point 48 °F    
Average Humidity 69    
Maximum Humidity 82    
Minimum Humidity 43    
Precipitation  
Precipitation 0.00 in - - ()
Sea Level Pressure  
Sea Level Pressure 30.26 in    
Wind  
Wind Speed 1 mph (SE)    
Max Wind Speed 8 mph    
Max Gust Speed -    
Visibility 11 miles    
Events      
Averages and records for this station are not official NWS values.
T = Trace of Precipitation, MM = Missing Value Source: NWS Daily Summary

Daily Weather History Graph

Daily Weather History Graph

Search for Another Location

Airport or City:

Trip Planner

Search our weather history database for the weather conditions in past years. The results will help you decide how hot, cold, wet, or windy it might be!

Date:

Astronomy

Nov. 11, 2013 Rise Set
Actual Time 6:54 AM CST 5:27 PM CST
Civil Twilight 6:28 AM CST 5:54 PM CST
Nautical Twilight 5:58 AM CST 6:23 PM CST
Astronomical Twilight 5:29 AM CST 6:52 PM CST
Moon 1:52 PM CST (11/11) 12:59 AM CST (11/11)
Length of Visible Light 11h 25m
Length of Day
10h 33m
Waxing Gibbous, 66% of the Moon is Illuminated
Nov 11
Waxing Gibbous
Nov 17
Full
Nov 25
Last Quarter
Dec 2
New
Dec 9
First Quarter

Hourly Weather History & Observations

Time (CST) Temp. Dew Point Humidity Pressure Visibility Wind Dir Wind Speed Gust Speed Precip Events Conditions
12:15 AM 52.9 °F 46.6 °F 79% 30.28 in 10.0 mi Calm Calm - N/A   Clear
12:35 AM 52.5 °F 46.8 °F 81% 30.27 in 10.0 mi Calm Calm - N/A   Clear
12:55 AM 52.3 °F 46.2 °F 80% 30.27 in 10.0 mi Calm Calm - N/A   Clear
1:15 AM 52.0 °F 45.7 °F 79% 30.27 in 10.0 mi Calm Calm - N/A   Clear
1:35 AM 52.0 °F 46.2 °F 81% 30.27 in 10.0 mi Calm Calm - N/A   Clear
1:55 AM 51.4 °F 45.9 °F 81% 30.27 in 10.0 mi Calm Calm - N/A   Clear
2:15 AM 52.2 °F 45.9 °F 79% 30.27 in 10.0 mi Calm Calm - N/A   Clear
2:35 AM 51.3 °F 45.1 °F 80% 30.26 in 10.0 mi Calm Calm - N/A   Clear
2:55 AM 52.5 °F 45.5 °F 77% 30.26 in 10.0 mi ESE 3.5 mph - N/A   Clear
3:15 AM 53.2 °F 45.5 °F 75% 30.26 in 10.0 mi East 3.5 mph - N/A   Clear
3:35 AM 52.2 °F 44.8 °F 76% 30.26 in 10.0 mi Calm Calm - N/A   Clear
3:55 AM 53.1 °F 45.1 °F 74% 30.26 in 10.0 mi Calm Calm - N/A   Clear
4:15 AM 52.2 °F 45.1 °F 77% 30.26 in 10.0 mi Calm Calm - N/A   Clear
4:35 AM 51.1 °F 44.8 °F 79% 30.26 in 10.0 mi Calm Calm - N/A   Clear
4:55 AM 51.1 °F 45.0 °F 80% 30.26 in 10.0 mi Calm Calm - N/A   Clear
5:47 AM 51.8 °F 44.6 °F 76% 30.25 in 13.0 mi Calm Calm - N/A   Clear
6:47 AM 50.0 °F 44.6 °F 82% 30.27 in 13.0 mi Calm Calm - N/A   Partly Cloudy
7:47 AM 51.8 °F 46.4 °F 82% 30.28 in 13.0 mi Calm Calm - N/A   Partly Cloudy
8:50 AM 57.2 °F 46.4 °F 67% 30.29 in 13.0 mi Calm Calm - N/A   Partly Cloudy
9:52 AM 62.6 °F 46.4 °F 55% 30.29 in 13.0 mi South 6.9 mph - N/A   Partly Cloudy
10:47 AM 66.2 °F 46.4 °F 49% 30.29 in 13.0 mi South 8.1 mph - N/A   Clear
12:47 PM 69.8 °F 48.2 °F 46% 30.23 in 13.0 mi South 5.8 mph - N/A   Partly Cloudy
1:47 PM 71.6 °F 50.0 °F 46% 30.20 in 15.0 mi South 4.6 mph - N/A   Partly Cloudy
2:47 PM 71.6 °F 48.2 °F 43% 30.18 in 15.0 mi Calm Calm - N/A   Partly Cloudy
3:47 PM 71.6 °F 50.0 °F 46% 30.18 in 13.0 mi WSW 4.6 mph - N/A   Partly Cloudy
4:48 PM 71.6 °F 50.0 °F 46% 30.18 in 13.0 mi Calm Calm - N/A   Partly Cloudy
5:50 PM 68.0 °F 50.0 °F 52% 30.19 in 15.0 mi Calm Calm - N/A   Partly Cloudy
6:47 PM 66.2 °F 50.0 °F 56% 30.20 in 15.0 mi East 5.8 mph - N/A   Clear
7:50 PM 64.4 °F 50.0 °F 59% 30.23 in 15.0 mi East 4.6 mph - N/A   Clear
9:15 PM 61.2 °F 50.2 °F 67% 30.26 in 10.0 mi Calm Calm - N/A   Clear
9:35 PM 61.7 °F 50.4 °F 66% 30.27 in 10.0 mi East 3.5 mph - N/A   Scattered Clouds
9:47 PM 60.8 °F 50.0 °F 68% 30.26 in 13.0 mi East 3.5 mph - N/A   Partly Cloudy
9:55 PM 59.4 °F 50.9 °F 74% 30.27 in 10.0 mi Calm Calm - N/A   Mostly Cloudy
10:15 PM 61.7 °F 51.1 °F 68% 30.28 in 10.0 mi Calm Calm - N/A   Overcast
10:35 PM 61.2 °F 50.9 °F 69% 30.29 in 10.0 mi Calm Calm - N/A   Mostly Cloudy
10:55 PM 59.9 °F 51.8 °F 75% 30.29 in 10.0 mi Calm Calm - N/A   Mostly Cloudy
11:15 PM 61.7 °F 51.6 °F 69% 30.30 in 10.0 mi Calm Calm - N/A   Overcast
11:35 PM 62.6 °F 51.6 °F 67% 30.30 in 10.0 mi Calm Calm - N/A   Overcast
11:55 PM 62.2 °F 52.5 °F 70% 30.31 in 10.0 mi Calm Calm - N/A   Overcast